This is the latest recevied weather packets stored in our database for station/object F4IEI-10. If no packets are shown the sender has not sent any weather packets the latest 10 day(s).
| Time | Temp. | Humidity | Pressure | Rain* | Wind** | Luminosity | Snow |
|---|---|---|---|---|---|---|---|
| 1777886917 | 14.44° C | 100% | 1013.7 hPa | - | - | - | - |
| 1777886017 | 13.89° C | 100% | 1013.8 hPa | - | - | - | - |
| 1777885117 | 13.89° C | 100% | 1013.8 hPa | - | - | - | - |
| 1777884217 | 13.33° C | 100% | 1013.8 hPa | - | - | - | - |
| 1777883317 | 13.33° C | 100% | 1013.7 hPa | - | - | - | - |
| 1777882417 | 13.33° C | 100% | 1013.7 hPa | - | - | - | - |
| 1777881517 | 13.33° C | 100% | 1013.6 hPa | - | - | - | - |
| 1777879716 | 13.33° C | 100% | 1013.4 hPa | - | - | - | - |
| 1777878816 | 13.89° C | 100% | 1013.3 hPa | - | - | - | - |
| 1777877916 | 13.33° C | 100% | 1013.2 hPa | - | - | - | - |
| 1777877016 | 12.78° C | 100% | 1012.9 hPa | - | - | - | - |
| 1777876116 | 12.22° C | 100% | 1012.9 hPa | - | - | - | - |
| 1777875216 | 12.22° C | 100% | 1012.8 hPa | - | - | - | - |
| 1777874316 | 11.67° C | 100% | 1012.8 hPa | - | - | - | - |
| 1777873416 | 11.67° C | 100% | 1012.7 hPa | - | - | - | - |
| 1777872516 | 11.67° C | 100% | 1012.6 hPa | - | - | - | - |
| 1777871616 | 11.67° C | 100% | 1012.4 hPa | - | - | - | - |
| 1777870716 | 11.67° C | 100% | 1012.3 hPa | - | - | - | - |
| 1777869816 | 11.67° C | 100% | 1012.3 hPa | - | - | - | - |
| 1777868920 | 11.67° C | 100% | 1012.3 hPa | - | - | - | - |
| 1777868018 | 11.67° C | 100% | 1012.3 hPa | - | - | - | - |
| 1777867118 | 11.11° C | 100% | 1012.4 hPa | - | - | - | - |
| 1777866218 | 11.11° C | 100% | 1012.6 hPa | - | - | - | - |
| 1777865318 | 11.11° C | 100% | 1012.6 hPa | - | - | - | - |
| 1777864418 | 11.11° C | 100% | 1012.6 hPa | - | - | - | - |
* Rain since midnight (hover to see other rain measurements)
** Current wind speed in m/s (hover to see current wind gust speed)